Location: Le Hiès Ruisseau
(43.3000°N, 0.4500°W)
Time: 03:08:29
(UTC+00:00)

Timation 2 Rocket - Pass Details

Date: 28 January 2023
Orbit: 905 x 1076 km, 70.0° (Epoch: 27 March)

Event Time Altitude Azimuth Distance (km) Brightness Sun altitude
Rises 18:51:25 0° 333° (NNW) 3,595 7.2 -18.9°
Reaches altitude 10° 18:53:54 10° 334° (NNW) 2,666 6.5 -19.3°
Maximum altitude 19:00:07 89° 61° (ENE) 977 3.9 -20.4°
Drops below altitude 10° 19:06:35 10° 155° (SSE) 2,769 6.2 -21.6°
Sets 19:09:12 0° 156° (SSE) 3,740 6.9 -22.1°
